Weather in Ivanivka

Ukraine / Luhansk Region     48°13′57″N   38°57′08″E
temp.,
°C
wind,
m/s
gust,
m/s
humid.,
%
clouds,
%
prec.,
mm/h
press.,
hPa
HPBL,
m
13 may, thu
thu1300:00+9sw018793 0.3 101526
03:00+9sw019284 1.1 101511
06:00+9se259248 0.1 1014146
09:00+16sse57735 0.1 1014498
12:00+20s56575 0.0 10141278
15:00+21sse4551100 0.0 10131439
18:00+19se3667100 0.0 1014194
21:00+15se3382100 0.0 101451
14 may, fri
fri1400:00+14ese228864 0.0 101427
03:00+13e338894 0.0 101333
06:00+14ese4128492 0.0 1012273
09:00+19se71363100 0.0 1012532
12:00+23sse6853100 0.0 1012774
15:00+25sse675129 0.0 1011895
18:00+24sse586446 0.0 1011398
21:00+18sse35875 0.0 101182
15 may, sat
sat1500:00+17ssw22904 0.0 101119
03:00+14w22835 1.7 101211
06:00+15w358329 0.3 1014117
09:00+19nne226832 0.3 1014238
12:00+24wnw1247100 0.0 10141293
15:00+25sse01425 0.0 10141868
18:00+25ne01485 0.0 10131151
21:00+18ne227165 0.0 101315
16 may, sun
sun1600:00+17n3370100 0.0 101327
03:00+15nne367799 0.0 1013103
06:00+16nne411825 0.0 1013267
09:00+21ne57685 0.0 1012464
12:00+25ene555031 0.0 1011907
15:00+26ese67415 0.0 10101311
18:00+24e585639 0.0 1009425
21:00+19ene4116677 0.0 1009171
17 may, mon
mon1700:00+18ese5156439 0.0 1008321
03:00+16e41157100 0.0 1008185
06:00+15e415614 0.0 1008320
09:00+21se816485 0.0 1008937
12:00+24se911444 0.0 10071076
15:00+26se78455 0.0 10071222
18:00+24se585619 0.0 1007647
21:00+19sse3476100 0.0 100858